Weather in Loket

Czech Republic     50°11′21″N   12°45′18″E
temp.,
°C
wind,
m/s
gust,
m/s
humid.,
%
clouds,
%
prec.,
mm/h
press.,
hPa
HPBL,
m
15 april, thu
thu1523:00−2n117636 0.0 102852
02:00−2nnw118096 0.0 102836
05:00−2nw1282100 0.0 102858
08:00−1n257590 0.0 1028509
11:00+3n4547100 0.0 10271459
14:00+4n4447100 0.1 10271763
17:00+3nnw4663100 0.3 10261317
20:000nnw2777100 0.3 1026541
16 april, fri
fri1623:000nnw2682100 0.1 1026507
02:00−1nw2690100 0.6 1025493
05:00−2nw258490 0.3 1024391
08:000nnw257595 0.4 1024515
11:00+3n246990 0.1 1024817
14:00+3n337998 0.2 1023644
17:00+3nne357694 0.1 1023767
20:00+1n238883 0.1 1024215
17 april, sat
sat1723:000n129487 0.0 102451
02:00−1n119454 0.0 102342
05:00−1n129275 0.0 1023211
08:00+1n1283100 0.1 1023397
11:00+4n117199 0.1 1022786
14:00+5nne227199 0.1 1021867
17:00+4nne228499 0.0 1021519
20:00+2nne238979 0.1 1022264
18 april, sun
sun1823:00+1nne129299 0.0 1023137
02:00+2n1292100 0.0 1022100
05:00+2n1191100 0.0 102249
08:00+3nnw1286100 0.1 1021140
11:00+7n116794 0.0 1021848
14:00+7n227284 0.4 1020901
17:00+6nne237346 0.2 1020709
20:00+4ne228487 0.2 1021163
19 april, mon
mon1923:00+2n118998 0.0 102215
02:00+1nnw119196 0.0 102113
05:00+1nne119298 0.0 102021
08:00+4nne1282100 0.0 1019215
11:00+6ne1273100 0.0 1018675
14:00+9n116097 0.2 10161193
17:00+8ne2267100 0.4 1015859
20:00+5nne1186100 0.5 101425